DW0417 Weather Reports


Display with metric or nautical units.
time (UTC)temp
F
wind
direction
speed
MPH
gust
MPH
rain 1hr
in
rain 24hr
in
rain mn
in
humidity
%
barometer
mb
20260504194533 71 88 8.0 17.0 0.00 0.00 0.00 24 1006.5
20260504194015 72 91 4.0 9.0 0.00 0.00 0.00 24 1006.5
20260504192533 72 156 3.0 8.0 0.00 0.00 0.00 22 1006.3
20260504192017 71 195 4.0 10.0 0.00 0.00 0.00 21 1006.2
20260504190533 71 156 5.0 11.0 0.00 0.00 0.00 23 1006.2
20260504185533 71 96 5.0 10.0 0.00 0.00 0.00 24 1006.3
20260504184532 71 90 8.0 16.0 0.00 0.00 0.00 25 1006.5
20260504183534 72 176 7.0 14.0 0.00 0.00 0.00 26 1006.7
20260504182533 71 126 7.0 14.0 0.00 0.00 0.00 27 1006.9
20260504181532 70 103 10.0 18.0 0.00 0.00 0.00 27 1006.9
20260504180533 70 97 11.0 20.0 0.00 0.00 0.00 28 1007.2
20260504180011 69 103 12.0 20.0 0.00 0.00 0.00 30 1007.4
20260504174531 69 76 11.0 20.0 0.00 0.00 0.00 29 1007.6
20260504173532 68 86 11.0 21.0 0.00 0.00 0.00 31 1007.7
20260504172529 67 91 9.0 20.0 0.00 0.00 0.00 32 1008.0
20260504171529 66 98 9.0 18.0 0.00 0.00 0.00 32 1008.1
20260504171004 66 139 9.0 20.0 0.00 0.00 0.00 32 1008.2
20260504150528 63 107 3.0 7.0 0.00 0.00 0.00 33 1008.5
20260504110518 43 85 0.0 3.0 0.00 0.00 0.00 63 1008.3
20260504100519 45 309 1.0 3.0 0.00 0.00 0.00 53 1008.6
20260504081514 45 165 0.0 0.0 0.00 0.00 0.00 54 1009.4
20260504080514 46 165 0.0 0.0 0.00 0.00 0.00 55 1009.4
20260504050505 61 167 5.0 13.0 0.00 0.00 0.00 31 1010.2
20260504045505 61 186 3.0 7.0 0.00 0.00 0.00 33 1010.0
20260504044506 62 97 4.0 6.0 0.00 0.00 0.00 31 1009.6
20260504043507 63 110 3.0 6.0 0.00 0.00 0.00 31 1009.6
20260504042506 63 79 4.0 7.0 0.00 0.00 0.00 30 1009.7
20260504041506 63 94 4.0 6.0 0.00 0.00 0.00 30 1009.9
20260504040507 64 77 4.0 9.0 0.00 0.00 0.00 30 1010.0
20260504035507 64 96 5.0 11.0 0.00 0.00 0.00 30 1010.1
20260504034957 65 86 6.0 12.0 0.00 0.00 0.00 30 1010.0
20260504033949 65 72 5.0 10.0 0.00 0.00 0.00 30 1010.1
20260504032947 65 76 5.0 10.0 0.00 0.00 0.00 30 1010.1
20260504031503 65 81 6.0 11.0 0.00 0.00 0.00 29 1010.0
20260504030504 66 73 6.0 12.0 0.00 0.00 0.00 29 1010.0
20260504025503 66 82 6.0 13.0 0.00 0.00 0.00 28 1010.0
20260504024504 66 79 9.0 16.0 0.00 0.00 0.00 27 1010.0
20260504023504 67 75 6.0 15.0 0.00 0.00 0.00 27 1009.9
20260504022503 67 110 5.0 10.0 0.00 0.00 0.00 27 1009.9
20260504021938 67 101 6.0 10.0 0.00 0.00 0.00 27 1009.7
20260504020939 67 91 6.0 13.0 0.00 0.00 0.00 26 1009.7
20260504015458 67 89 7.0 12.0 0.00 0.00 0.00 26 1009.7
20260504014931 67 67 4.0 10.0 0.00 0.00 0.00 25 1009.6
20260504013454 68 78 3.0 6.0 0.00 0.00 0.00 25 1009.5
20260504012453 68 108 4.0 9.0 0.00 0.00 0.00 25 1009.5
20260504011454 69 104 5.0 9.0 0.00 0.00 0.00 24 1009.5
20260504010454 69 124 7.0 13.0 0.00 0.00 0.00 25 1009.5
20260504005453 70 129 9.0 19.0 0.00 0.00 0.00 24 1009.7
20260504004937 70 131 6.0 14.0 0.00 0.00 0.00 25 1010.1
20260504003453 69 111 12.0 21.0 0.00 0.00 0.00 25 1010.2
20260504002453 69 103 6.0 16.0 0.00 0.00 0.00 25 1010.1
20260504001452 69 78 2.0 8.0 0.00 0.00 0.00 27 1010.3
20260504000451 69 347 4.0 7.0 0.00 0.00 0.00 26 1010.3
20260503235451 69 72 7.0 20.0 0.00 0.00 0.00 27 1010.4
20260503234453 69 110 7.0 17.0 0.00 0.00 0.00 27 1010.7
20260503233452 69 120 10.0 18.0 0.00 0.00 0.00 28 1010.7
20260503232451 71 153 7.0 19.0 0.00 0.00 0.00 24 1010.3
20260503231452 72 147 5.0 14.0 0.00 0.00 0.00 23 1010.2
20260503230446 73 335 5.0 11.0 0.00 0.00 0.00 23 1010.4
20260503225446 72 77 7.0 14.0 0.00 0.00 0.00 23 1010.3
20260503224925 73 115 5.0 14.0 0.00 0.00 0.00 23 1010.3
20260503223445 71 274 12.0 23.0 0.00 0.00 0.00 23 1010.6
20260503222446 70 126 8.0 17.0 0.00 0.00 0.00 24 1010.3
20260503221917 72 143 7.0 13.0 0.00 0.00 0.00 24 1010.3
20260503220445 72 115 4.0 8.0 0.00 0.00 0.00 22 1010.4
20260503220407 71 72 5.0 14.0 0.00 0.00 0.00 22 1010.4
20260503214934 70 311 14.0 31.0 0.00 0.00 0.00 24 1011.0
20260503213440 72 94 6.0 14.0 0.00 0.00 0.00 20 1010.7
20260503212912 73 89 9.0 17.0 0.00 0.00 0.00 19 1010.8
20260503211440 74 66 8.0 17.0 0.00 0.00 0.00 18 1010.7
20260503210439 73 110 9.0 17.0 0.00 0.00 0.00 19 1010.9
20260503205441 74 96 7.0 14.0 0.00 0.00 0.00 18 1010.9
20260503204440 74 65 3.0 10.0 0.00 0.00 0.00 18 1011.1
20260503203440 74 160 2.0 4.0 0.00 0.00 0.00 18 1011.3
20260503202439 73 169 2.0 7.0 0.00 0.00 0.00 19 1011.5
20260503201440 74 201 3.0 8.0 0.00 0.00 0.00 18 1011.6
20260503200434 74 155 3.0 7.0 0.00 0.00 0.00 18 1011.6
20260503195434 73 208 3.0 10.0 0.00 0.00 0.00 20 1011.7